星链-32096 (STARLINK-32096 )

导读

STARLINK-32096是美国太空探索技术公司星链互联网卫星星座中的一颗卫星,于2024年5月8日发射入轨,属于星链项目扩容组网的组成部分。星链旨在通过近地轨道卫星群,为全球提供高速互联网接入服务,该卫星的入轨进一步扩充了星座的覆盖范围与服务能力。

基本信息
目录编号:
59698
目录名称:
STARLINK-32096
国际标识:
2024-086S
轨道中心:
EARTH
卫星名称:
星链-32096
卫星全名:
星链-32096 (STARLINK-32096 )
卫星状态:
在轨 (已飞行857 天)
发射日期:
2024-05-08 UTC
国别 :
美国 (US)
星等 :
--
该卫星已列入 空间交会检测服务 Space Conjunction Data Service (SCDS) ,当前飞行风险评估等级: 高风险
轨道信息
数据来源 国际轨道数据
星历时间: 2026-09-12T04:27:11+0800
7小时前
查看轨道信息
半长轴: 6861.109km
偏心率: 0.0001543
轨道倾角: 43.001°
近地点辐角 266.736°
升交点赤经 88.517°
平近点角 93.332°
近地点: 481.913km
远地点: 484.031km
周期: 94.265分钟
每日圈数: 15.276059
详细信息
固有亮度:
5
最大亮度:
1.5
卫星平台:
Starlink v2.0 mini
覆盖范围:
全球
运营商:
太空探索技术公司
运营商所在国:
美国
制造商(研发单位):
太空探索技术公司
制造商所在国:
美国
使用方式:
暂无
卫星简介
星链(Starlink)计划是由太空探索技术公司(SpaceX)提出的一个巨型低轨卫星互联网星座项目,计划在2019年至2024年间在太空搭建由约1.2万颗卫星组成的“星链”网络,其中1584颗将部署在地球上空550千米处的近地轨道,并从2020年开始工作。该卫星仍在工作。
2D轨道图
3D轨道图
轨道高度分析图
轨道倾角分析图
轨道综合分析图
查看轨道综合分析图
交会数据列表
事件ID 空间交会对象 最接近时刻(TCA) 交会距离 交会风险概率(CRP) 交会风险指数(CRI) 操作
CDM_260913-024605-483805-969822
2026-09-13T
02:46:58+0000
0.235 km
中距离
4.932873E-4 高风险 0.89
CDM_260913-172305-537005-969821
2026-09-13T
17:23:30+0000
0.591 km
远距离
9.146348E-5 中风险 0.74
CDM_260914-081705-537005-969821
2026-09-14T
08:17:58+0000
0.858 km
远距离
2.932654E-5 中风险 0.64
CDM_260913-112405-483805-969821
2026-09-13T
11:24:48+0000
0.943 km
远距离
1.797138E-5 中风险 0.6
CDM_260913-154905-537005-969821
2026-09-13T
15:49:21+0000
1.066 km
极远距离
1.391966E-5 中风险 0.58
CDM_260913-232205-651705-969821
2026-09-13T
23:22:11+0000
1.135 km
极远距离
1.33649E-5 中风险 0.58
CDM_260914-095205-537005-969821
2026-09-14T
09:52:07+0000
1.253 km
极远距离
7.973447E-6 低风险 0.53
CDM_260912-030102-880905-969822
OICETS (28809)
2026-09-12T
03:01:55+0000
2.330 km
极远距离
1.592665E-6 低风险 0.39
CDM_260914-005605-651705-969821
2026-09-14T
00:56:20+0000
2.356 km
极远距离
1.563663E-6 低风险 0.39
CDM_260913-185705-537005-969821
2026-09-13T
18:57:39+0000
2.217 km
极远距离
1.52363E-6 低风险 0.39
与全量物体交会距离演化趋势
与全量物体交会风险概率演化趋势